DW3649 Athens GR current weather conditions

sailwx.info

Wind from 046

Air temperature 8.3° C
Dewpoint 3.2° C

Last reported at 2019-Dec-06 02:00 UTC.
Time now 2019-Dec-06 03:06 UTC

Location: N 37°58' E 023°45'.
View on Google Maps.

See reports from other nearby stations

  
Tides and Currents Weather Stations Pressure Air Temp Water Temp Dewpoint Dewpoint Depression Visibility Wind Speed Wind Dir Waves Ship Positions
date/time (UTC)wind fromknots sea level pressurealtimeterstation pressurevisibilityair tempwater tempwave heightnotes
2019-Dec-06 02:00 046 8.3
2019-Dec-06 01:46 046 8.3
2019-Dec-06 01:31 046 8.3
2019-Dec-06 01:17 046 8.3
2019-Dec-06 01:01 046 8.9
2019-Dec-06 00:45 046 8.9
2019-Dec-06 00:30 046 8.9
2019-Dec-06 00:16 046 8.9
2019-Dec-06 00:00 046 8.9
2019-Dec-05 23:45 046 8.9
2019-Dec-05 23:30 046 8.9
2019-Dec-05 23:16 046 0 8.9
2019-Dec-05 23:00 046 9.4
2019-Dec-05 22:45 046 0 9.4
2019-Dec-05 22:30 046 0 9.4
2019-Dec-05 22:15 046 9.4
2019-Dec-05 22:01 046 0 9.4
2019-Dec-05 21:45 046 10.0
2019-Dec-05 21:30 046 0 10.0
2019-Dec-05 21:15 047 0 10.0
2019-Dec-05 21:00 048 10.0
2019-Dec-05 20:45 048 0 10.0
2019-Dec-05 20:30 051 1 10.0
2019-Dec-05 20:15 036 1 10.0
2019-Dec-05 19:45 034 0 10.0
2019-Dec-05 19:30 022 2 10.6
2019-Dec-05 19:15 026 1 10.6
2019-Dec-05 19:00 026 1 10.6
2019-Dec-05 18:45 005 1 10.6
2019-Dec-05 18:30 347 1 10.6
2019-Dec-05 18:15 032 1 10.6
2019-Dec-05 18:00 035 1 10.6
2019-Dec-05 17:45 022 2 10.6
2019-Dec-05 17:30 021 2 10.6
2019-Dec-05 17:15 012 1 10.6
2019-Dec-05 17:00 340 1 10.0
2019-Dec-05 16:45 030 2 10.0
2019-Dec-05 16:30 049 3 10.0
2019-Dec-05 16:15 045 2 10.6
2019-Dec-05 16:00 032 1 10.6
2019-Dec-05 15:45 049 2 10.6
2019-Dec-05 15:31 042 1 10.6
2019-Dec-05 15:17 043 2 10.6
2019-Dec-05 15:02 034 2 10.6
2019-Dec-05 14:47 349 1 10.6
2019-Dec-05 14:32 042 3 10.6
2019-Dec-05 14:17 062 3 10.6
2019-Dec-05 14:02 034 2 11.1
2019-Dec-05 13:46 044 3 11.1
2019-Dec-05 13:31 355 1 11.1
2019-Dec-05 13:17 018 2 11.1
2019-Dec-05 13:01 036 3 11.1
2019-Dec-05 12:46 032 1 11.1
2019-Dec-05 12:32 015 3 11.1
2019-Dec-05 12:17 036 3 11.1
2019-Dec-05 12:01 041 4 11.1
2019-Dec-05 11:47 031 3 11.7
2019-Dec-05 11:31 030 5 11.7
2019-Dec-05 11:16 040 2 11.7
2019-Dec-05 11:02 009 3 11.7
2019-Dec-05 10:47 332 3 11.1
2019-Dec-05 10:31 005 3 11.1
2019-Dec-05 10:16 028 3 11.7
2019-Dec-05 10:01 035 4 11.7
2019-Dec-05 09:46 009 3 11.7
2019-Dec-05 09:31 012 4 11.7
2019-Dec-05 09:16 333 3 12.2
2019-Dec-05 09:01 339 5 11.7
2019-Dec-05 08:46 336 3 11.7
2019-Dec-05 08:31 343 3 11.7
2019-Dec-05 08:15 015 3 11.7
2019-Dec-05 08:01 038 2 11.7
2019-Dec-05 07:46 344 1 11.1
2019-Dec-05 07:31 327 1 10.6
2019-Dec-05 07:16 014 0 10.6
2019-Dec-05 07:01 351 2 10.6
2019-Dec-05 06:46 009 1 10.0
2019-Dec-05 06:31 355 1 9.4
2019-Dec-05 06:16 005 0 9.4
2019-Dec-05 06:00
2019-Dec-05 05:46
2019-Dec-05 05:30
2019-Dec-05 05:15
2019-Dec-05 05:00
2019-Dec-05 04:45
2019-Dec-05 04:32
2019-Dec-05 04:17
2019-Dec-05 04:01
2019-Dec-05 03:46
2019-Dec-05 03:31
2019-Dec-05 03:17 350 9.4
2019-Dec-05 03:01 341 3 9.4
2019-Dec-05 02:46 036 2 9.4
2019-Dec-05 02:31 355 2 9.4
2019-Dec-05 02:16 344 2 9.4
2019-Dec-05 02:01 360 2 9.4
2019-Dec-05 01:45 344 3 9.4
2019-Dec-05 01:30 355 2 9.4
2019-Dec-05 01:15 013 1 9.4
2019-Dec-05 01:00 346 0 9.4
2019-Dec-05 00:45 030 3 10.0
2019-Dec-05 00:30 013 2 10.0
2019-Dec-05 00:15 342 3 10.0
2019-Dec-05 00:00 023 3 10.0
2019-Dec-04 23:45 021 2 10.0
2019-Dec-04 23:30 342 4 10.0
2019-Dec-04 23:15 011 2 10.0
2019-Dec-04 23:00 326 2 10.0
2019-Dec-04 22:45 355 3 10.0
2019-Dec-04 22:30 348 3 10.6
2019-Dec-04 22:15 346 2 10.6
2019-Dec-04 22:00 017 2 10.0
2019-Dec-04 21:47 331 2 10.0
2019-Dec-04 21:32 348 3 10.0
2019-Dec-04 21:16 005 2 10.0
2019-Dec-04 21:02 035 2 10.0
2019-Dec-04 20:47 005 3 10.0
2019-Dec-04 20:32 028 3 10.0
2019-Dec-04 20:17 333 3 10.0
2019-Dec-04 20:02 015 3 10.0
2019-Dec-04 19:46 327 3 10.0
2019-Dec-04 19:31 017 4 10.0
2019-Dec-04 19:16 018 3 10.6
2019-Dec-04 19:01 005 3 10.6
2019-Dec-04 18:46 355 3 10.0
2019-Dec-04 18:32 350 3 10.0
2019-Dec-04 18:16 013 3 10.0
2019-Dec-04 18:02 346 3 10.6
2019-Dec-04 17:46 355 3 10.6
2019-Dec-04 17:31 019 4 10.6
2019-Dec-04 17:16 349 4 10.6
2019-Dec-04 17:01 023 5 10.6
2019-Dec-04 16:45 005 4 10.6
2019-Dec-04 16:31 039 3 10.6
2019-Dec-04 16:16 360 4 10.6
2019-Dec-04 16:02 005 4 10.6
2019-Dec-04 15:46 325 4 10.6
2019-Dec-04 15:30 013 4 10.6
2019-Dec-04 15:15 351 5 10.6
2019-Dec-04 15:00 015 4 10.6
2019-Dec-04 14:45 032 5 10.6
2019-Dec-04 14:30 040 3 10.6
2019-Dec-04 14:15 013 4 10.6
2019-Dec-04 14:01 337 5 10.6
2019-Dec-04 13:45 042 6 10.6
2019-Dec-04 13:30 030 5 10.6
2019-Dec-04 13:15 355 4 10.6
2019-Dec-04 13:00 031 4 10.6
2019-Dec-04 12:45 040 4 10.6
2019-Dec-04 12:31 036 3 10.6
2019-Dec-04 12:15 024 5 10.0
2019-Dec-04 12:00 022 5 10.6
2019-Dec-04 11:45 042 5 10.0
2019-Dec-04 11:30 074 5 10.0
2019-Dec-04 11:15 031 6 10.0
2019-Dec-04 11:00 048 6 10.0
2019-Dec-04 10:46 045 4 10.0
2019-Dec-04 10:31 038 4 10.6
2019-Dec-04 10:16 031 4 10.0
2019-Dec-04 10:02 030 4 10.0
2019-Dec-04 09:48 024 4 10.0
2019-Dec-04 09:32 038 5 10.6
2019-Dec-04 09:16 349 6 10.6
2019-Dec-04 09:01 046 6 10.6
2019-Dec-04 08:46 043 6 10.6
2019-Dec-04 08:32 059 5 10.6
2019-Dec-04 08:16 056 5 10.6
2019-Dec-04 08:02 066 5 11.1
2019-Dec-04 07:46 040 3 11.1
2019-Dec-04 07:31 048 4 11.7
2019-Dec-04 07:15 036 6 11.7
2019-Dec-04 07:00 052 5 12.2
2019-Dec-04 06:45 041 4 12.2
2019-Dec-04 06:31 019 4 12.8
2019-Dec-04 06:15
2019-Dec-04 06:00
2019-Dec-04 05:45
2019-Dec-04 05:30
2019-Dec-04 05:15
2019-Dec-04 05:02
2019-Dec-04 04:47
2019-Dec-04 04:32
2019-Dec-04 04:16
2019-Dec-04 04:01
2019-Dec-04 03:46 155 1 12.8
2019-Dec-04 03:30 155 0 12.8
2019-Dec-04 03:16 155 12.8
2019-Dec-04 03:01 155 12.2